Location: Unspecified
(20.0000°S, 0.0000°E)
Time: 00:31:43
(UTC+00:00)

ISS - Visible Passes

Search period start: 22 May 2019 00:00
Search period end: 01 June 2019 00:00
Orbit: 407 x 410 km, 51.6° (Epoch: 22 May)

Date Brightness Start Highest point End Pass type
(mag) Time Alt. Az. Time Alt. Az. Time Alt. Az.
22 May -3.9 05:48:15 10° NW 05:51:33 81° SW 05:54:54 10° SE visible
23 May -2.3 04:57:40 10° NNW 05:00:45 37° NE 05:03:52 10° ESE visible
24 May -0.5 04:11:15 13° E 04:11:15 13° E 04:12:05 10° E visible
24 May -2.4 05:44:08 12° W 05:46:22 21° SW 05:49:00 10° S visible
25 May -2.0 04:57:14 22° SSE 04:57:14 22° SSE 04:58:40 10° SSE visible
